Location: Newark
(32.9833°N, 70.6000°E)
Time: 05:31:28
(UTC+00:00)

Envisat - Visible Passes

Search period start: 08 April 2020 00:00
Search period end: 18 April 2020 00:00
Orbit: 764 x 766 km, 98.1° (Epoch: 07 April)

Date Brightness Start Highest point End Pass type
(mag) Time Alt. Az. Time Alt. Az. Time Alt. Az.
08 Apr 6.2 00:30:55 10° ENE 00:33:26 14° E 00:35:55 10° ESE visible
09 Apr 6.1 14:22:41 10° WSW 14:25:13 14° W 14:27:47 10° WNW visible
12 Apr 5.9 14:10:23 10° SW 14:13:49 18° W 14:17:17 10° NW visible
17 Apr 6.2 14:26:02 10° WSW 14:28:06 12° W 14:30:11 10° WNW visible
